TimeCST,TemperatureF,Dew PointF,Humidity,Sea Level PressureIn,VisibilityMPH,Wind Direction,Wind SpeedMPH,Gust SpeedMPH,PrecipitationIn,Events,Conditions,WindDirDegrees,DateUTC
12:15 AM,61.0,55.4,82,30.05,10.0,Calm,Calm,-,N/A,,Clear,0,2013-11-04 06:15:00
12:35 AM,61.2,55.2,81,30.03,10.0,Calm,Calm,-,N/A,,Clear,0,2013-11-04 06:35:00
12:55 AM,61.2,55.6,82,30.04,10.0,Calm,Calm,-,N/A,,Clear,0,2013-11-04 06:55:00
1:15 AM,59.5,55.0,85,30.03,7.0,Calm,Calm,-,N/A,,Clear,0,2013-11-04 07:15:00
1:35 AM,60.8,55.4,82,30.03,10.0,Calm,Calm,-,N/A,,Clear,0,2013-11-04 07:35:00
1:55 AM,61.2,55.8,82,30.02,10.0,Calm,Calm,-,N/A,,Clear,0,2013-11-04 07:55:00
2:15 AM,60.1,55.4,85,30.01,10.0,North,3.5,-,N/A,,Clear,10,2013-11-04 08:15:00
2:35 AM,60.3,55.9,86,30.00,10.0,North,3.5,-,N/A,,Clear,360,2013-11-04 08:35:00
2:55 AM,60.1,56.3,87,29.99,10.0,Calm,Calm,-,N/A,,Clear,0,2013-11-04 08:55:00
3:15 AM,60.1,56.3,87,29.99,10.0,Calm,Calm,-,N/A,,Clear,0,2013-11-04 09:15:00
3:35 AM,60.3,56.3,87,29.99,10.0,Calm,Calm,-,N/A,,Clear,0,2013-11-04 09:35:00
3:55 AM,59.5,55.6,87,29.98,10.0,Calm,Calm,-,N/A,,Clear,0,2013-11-04 09:55:00
4:15 AM,60.1,55.8,86,29.97,10.0,Calm,Calm,-,N/A,,Clear,0,2013-11-04 10:15:00
4:35 AM,59.7,55.9,87,29.98,10.0,Calm,Calm,-,N/A,,Clear,0,2013-11-04 10:35:00
4:55 AM,59.7,55.9,87,29.98,10.0,Calm,Calm,-,N/A,,Clear,0,2013-11-04 10:55:00
5:15 AM,59.5,55.9,88,29.98,10.0,Calm,Calm,-,N/A,,Clear,0,2013-11-04 11:15:00
5:35 AM,59.9,56.3,88,29.98,10.0,Calm,Calm,-,N/A,,Clear,0,2013-11-04 11:35:00
5:55 AM,59.5,55.8,87,29.99,10.0,Calm,Calm,-,N/A,,Clear,0,2013-11-04 11:55:00
6:15 AM,59.7,55.6,86,29.99,10.0,Calm,Calm,-,N/A,,Clear,0,2013-11-04 12:15:00
6:35 AM,59.5,55.8,87,30.00,10.0,Calm,Calm,-,N/A,,Clear,0,2013-11-04 12:35:00
6:55 AM,59.2,55.6,88,30.00,10.0,Calm,Calm,-,N/A,,Clear,0,2013-11-04 12:55:00
7:15 AM,59.5,55.8,87,30.00,10.0,Calm,Calm,-,N/A,,Clear,0,2013-11-04 13:15:00
7:35 AM,60.8,56.1,85,30.01,10.0,Calm,Calm,-,N/A,,Clear,0,2013-11-04 13:35:00
7:55 AM,61.2,56.7,85,30.01,10.0,Calm,Calm,-,N/A,,Clear,0,2013-11-04 13:55:00
8:15 AM,62.2,57.2,84,30.01,10.0,Calm,Calm,-,N/A,,Clear,0,2013-11-04 14:15:00
8:35 AM,63.5,57.9,82,30.03,10.0,Calm,Calm,-,N/A,,Clear,0,2013-11-04 14:35:00
8:55 AM,65.1,58.5,79,30.03,10.0,Calm,Calm,-,N/A,,Clear,0,2013-11-04 14:55:00
9:15 AM,67.1,59.0,75,30.03,10.0,Calm,Calm,-,N/A,,Clear,0,2013-11-04 15:15:00
9:35 AM,71.1,59.4,66,30.03,10.0,ENE,4.6,-,N/A,,Clear,60,2013-11-04 15:35:00
9:55 AM,74.3,59.2,59,30.03,10.0,ENE,3.5,-,N/A,,Clear,70,2013-11-04 15:55:00
10:15 AM,75.2,59.0,57,30.03,10.0,Calm,Calm,-,N/A,,Clear,0,2013-11-04 16:15:00
10:35 AM,75.7,59.0,56,30.03,10.0,Calm,Calm,-,N/A,,Clear,0,2013-11-04 16:35:00
10:55 AM,76.8,58.8,54,30.02,10.0,SSW,3.5,-,N/A,,Clear,210,2013-11-04 16:55:00
11:15 AM,77.5,58.3,51,30.02,10.0,Calm,Calm,-,N/A,,Clear,0,2013-11-04 17:15:00
11:35 AM,78.3,58.1,50,30.01,10.0,SE,3.5,-,N/A,,Clear,140,2013-11-04 17:35:00
11:55 AM,79.0,58.3,49,30.00,10.0,SE,3.5,-,N/A,,Clear,130,2013-11-04 17:55:00
12:15 PM,80.2,57.6,46,29.99,10.0,SE,3.5,-,N/A,,Clear,130,2013-11-04 18:15:00
12:35 PM,81.0,57.4,44,29.98,10.0,South,4.6,-,N/A,,Clear,170,2013-11-04 18:35:00
12:55 PM,82.8,56.8,41,29.96,10.0,SSE,10.4,16.1,N/A,,Clear,160,2013-11-04 18:55:00
1:15 PM,82.9,55.2,38,29.96,10.0,SSE,10.4,-,N/A,,Clear,150,2013-11-04 19:15:00
1:35 PM,83.5,56.1,39,29.94,10.0,South,13.8,17.3,N/A,,Clear,170,2013-11-04 19:35:00
1:55 PM,82.8,56.8,41,29.93,10.0,SE,9.2,17.3,N/A,,Clear,140,2013-11-04 19:55:00
2:15 PM,83.1,57.6,42,29.92,10.0,SSE,9.2,-,N/A,,Clear,150,2013-11-04 20:15:00
2:35 PM,83.7,57.4,41,29.91,10.0,SSE,13.8,18.4,N/A,,Clear,160,2013-11-04 20:35:00
2:55 PM,83.8,57.7,41,29.90,10.0,South,15.0,19.6,N/A,,Clear,170,2013-11-04 20:55:00
3:15 PM,82.8,59.5,45,29.90,10.0,ESE,10.4,16.1,N/A,,Scattered Clouds,120,2013-11-04 21:15:00
3:35 PM,82.8,60.3,46,29.91,10.0,SE,9.2,-,N/A,,Mostly Cloudy,130,2013-11-04 21:35:00
3:55 PM,81.9,61.0,49,29.90,10.0,East,11.5,-,N/A,,Mostly Cloudy,100,2013-11-04 21:55:00
4:15 PM,81.0,61.7,52,29.90,10.0,East,13.8,-,N/A,,Mostly Cloudy,100,2013-11-04 22:15:00
4:35 PM,80.2,62.6,55,29.91,10.0,East,10.4,-,N/A,,Scattered Clouds,100,2013-11-04 22:35:00
4:55 PM,79.7,63.5,58,29.91,10.0,East,10.4,-,N/A,,Mostly Cloudy,90,2013-11-04 22:55:00
5:15 PM,79.3,63.7,59,29.91,10.0,East,9.2,-,N/A,,Mostly Cloudy,90,2013-11-04 23:15:00
5:35 PM,79.0,64.2,60,29.91,10.0,East,9.2,-,N/A,,Scattered Clouds,100,2013-11-04 23:35:00
5:55 PM,78.8,64.6,62,29.92,10.0,ESE,8.1,-,N/A,,Mostly Cloudy,110,2013-11-04 23:55:00
6:15 PM,78.3,65.3,64,29.93,10.0,ESE,9.2,-,N/A,,Overcast,110,2013-11-05 00:15:00
6:35 PM,78.1,65.5,65,29.93,10.0,East,10.4,-,N/A,,Overcast,100,2013-11-05 00:35:00
6:55 PM,77.9,66.2,67,29.93,10.0,East,9.2,-,N/A,,Overcast,100,2013-11-05 00:55:00
7:15 PM,77.2,66.2,69,29.94,10.0,East,8.1,-,N/A,,Mostly Cloudy,100,2013-11-05 01:15:00
7:35 PM,77.0,66.2,69,29.95,10.0,East,8.1,-,N/A,,Scattered Clouds,100,2013-11-05 01:35:00
7:55 PM,77.0,66.0,69,29.95,10.0,ESE,8.1,-,N/A,,Mostly Cloudy,110,2013-11-05 01:55:00
8:15 PM,77.0,65.5,67,29.96,10.0,ESE,5.8,-,N/A,,Overcast,120,2013-11-05 02:15:00
8:35 PM,77.0,65.3,67,29.96,10.0,ESE,6.9,-,N/A,,Overcast,120,2013-11-05 02:35:00
8:55 PM,77.0,65.5,67,29.96,10.0,ESE,6.9,-,N/A,,Overcast,110,2013-11-05 02:55:00
9:15 PM,76.6,65.5,68,29.96,10.0,ESE,5.8,-,N/A,,Overcast,120,2013-11-05 03:15:00
9:35 PM,76.5,65.5,69,29.96,10.0,SE,6.9,-,N/A,,Overcast,130,2013-11-05 03:35:00
9:55 PM,76.1,65.5,70,29.96,10.0,SE,6.9,-,N/A,,Scattered Clouds,130,2013-11-05 03:55:00
10:15 PM,75.4,65.7,72,29.96,10.0,ESE,5.8,-,N/A,,Clear,120,2013-11-05 04:15:00
10:35 PM,74.8,65.7,73,29.97,10.0,ESE,4.6,-,N/A,,Clear,120,2013-11-05 04:35:00
10:55 PM,73.6,65.7,76,29.97,10.0,East,3.5,-,N/A,,Clear,100,2013-11-05 04:55:00
11:15 PM,72.9,65.7,78,29.97,10.0,ESE,4.6,-,N/A,,Clear,110,2013-11-05 05:15:00
11:35 PM,72.0,65.7,80,29.97,10.0,Calm,Calm,-,N/A,,Clear,0,2013-11-05 05:35:00
11:55 PM,71.6,65.7,81,29.97,10.0,East,3.5,-,N/A,,Clear,90,2013-11-05 05:55:00